RH
61 62 70 78 91 90 91 88 82 77 83 81 69 66 65 66 66 72 71 66 65 65 64 71 69 70 67 82 92 78 84 89 87 50 42 52 68 73 61 57 58 61 81
60 67 70 68 71 77 85 84 85 84 86 86 86 79 72 64 67 68 66 58 60 63 63 68 65 56 78 83 88 86 89 78 62 70 58 52 66 66 67 71 63 57 73
66 69 71 78 76 77 76 78 81 82 81 75 71 76 75 76 66 70 65 61 58 60 61 64 67 70 75 77 76 86 74 77 70 65 56 49 50 51 63 71 77 83 91
69 70 73 73 82 83 80 79 81 76 79 79 74 82 80 73 77 68 65 63 63 64 62 62 60 63 69 73 72 79 81 65 67 70 55 59 70 60 60 54 66 66 62
71 71 80 76 80 72 71 68 66 66 63 65 67 77 77 75 70 72 71 66 66 65 63 62 60 69 77 71 58 69 73 70 74 76 62 68 78 74 68 53 58 80 70
77 80 79 73 81 74 71 69 69 72 69 69 71 66 68 62 84 96 93 82 81 78 75 65 62 86 87 90 89 88 77 81 84 66 60 63 75 68 63 57 58 63 69
93 92 77 78 77 80 77 78 70 71 73 78 75 72 71 73 100 100 100 80 78 73 76 67 62 55 86 68 96 95 92 91 89 82 76 68 68 66 71 77 73 64 57
80 89 89 88 87 86 82 82 78 77 77 81 83 81 82 74 99 100 100 95 89 83 85 74 74 78 78 90 90 90 79 73 74 61 68 71 71 70 72 69 80 89 69
88 94 95 88 94 89 86 88 86 88 90 95 90 89 93 76 100 100 100 95 86 83 78 77 82 95 99 100 97 90 89 80 81 91 90 91 99 99 84 70 73 90 70
95 92 90 86 86 80 82 78 78 77 82 82 82 91 90 88 100 100 97 90 93 95 83 93 98 95 100 100 99 94 93 84 73 67 71 84 90 80 97 78 68 78 65
84 80 80 77 80 80 81 81 81 81 84 89 95 96 96 98 93 100 100 77 88 92 88 99 99 100 100 100 100 96 93 91 88 68 57 71 66 82 78 71 66 73 75
62 63 70 71 64 68 78 84 81 83 88 88 91 93 96 97 100 100 100 100 100 84 94 90 91 100 100 100 100 100 100 100 79 60 76 66 92 89 94 95 89 78 82
64 68 67 66 64 67 70 67 51 64 68 74 85 90 82 73 80 99 100 100 100 99 99 99 96 100 100 96 100 100 100 98 98 98 84 74 94 96 89 94 93 89 83
65 65 64 62 64 64 48 45 42 43 44 45 47 52 54 55 56 54 58 64 91 74 90 76 95 89 96 87 90 95 96 97 96 88 85 77 83 92 88 88 83 79 94
58 56 52 43 50 49 54 56 50 68 68 45 44 43 46 47 60 84 73 50 50 71 74 58 61 62 55 59 55 56 57 62 77 78 87 93 94 84 72 72 78 76 88
50 46 48 40 39 39 38 51 96 94 99 100 100 76 60 90 100 100 100 100 100 100 56 48 50 50 51 52 61 62 53 64 60 66 70 79 90 92 94 94 97 99 98
59 57 42 44 39 42 43 40 45 72 99 100 100 100 100 96 100 100 100 100 100 91 44 44 48 48 48 48 48 52 61 66 77 67 76 76 71 87 95 91 91 96 98
56 82 44 40 37 36 39 38 34 38 39 45 90 89 98 100 100 100 100 94 54 67 43 46 47 48 54 57 61 61 68 73 83 80 78 79 82 74 89 93 86 88 93
44 42 41 38 36 41 33 32 31 35 35 35 47 83 87 100 100 99 100 65 48 42 39 42 50 56 62 64 64 66 67 62 68 80 84 89 85 91 87 78 90 99 96
46 73 54 35 32 33 31 30 30 33 36 33 31 32 49 73 56 52 64 51 56 50 44 46 49 68 73 71 70 64 61 64 63 67 67 65 68 80 88 88 85 91 93
34 37 58 30 29 29 30 32 31 31 30 30 31 38 99 37 34 34 36 39 41 42 43 45 43 47 66 69 59 56 53 57 52 49 49 56 66 68 68 68 73 89 93
32 33 32 31 32 32 32 31 28 26 27 28 28 31 100 41 32 32 32 34 36 40 41 46 46 45 53 62 57 51 52 52 51 53 52 54 61 57 54 52 57 64 70
32 31 31 31 31 43 33 31 32 33 30 26 26 26 26 28 30 31 31 30 32 36 38 42 47 51 50 58 58 63 56 59 56 56 61 60 54 52 50 56 60 71 81
49 37 35 34 32 34 34 36 35 45 38 34 30 28 29 29 28 29 28 29 32 34 36 37 38 40 51 55 61 62 66 74 67 66 64 65 58 60 55 53 61 66 64
34 38 36 36 36 36 36 35 35 34 34 35 36 36 34 36 34 32 35 37 36 36 37 36 36 38 40 49 52 46 60 100 80 87 61 62 62 62 61 65 63 65 63
34 37 35 34 35 36 36 36 36 36 37 42 42 45 44 41 40 42 44 45 44 45 46 42 43 42 40 39 42 62 90 100 84 100 67 62 65 55 57 64 58 51 55
Wind_Speed
10 10 11 10 8 14 13 16 16 16 11 15 16 18 19 19 19 17 17 16 17 16 15 13 15 14 10 9 8 9 9 8 10 10 8 5 6 8 9 7 7 6 3
11 10 10 12 12 10 16 15 15 17 16 15 16 17 18 18 17 19 19 17 18 17 16 16 15 11 13 12 9 11 10 9 10 11 8 6 9 7 6 7 6 5 5
10 12 11 12 11 13 14 13 14 16 16 18 18 17 18 15 16 15 17 18 17 17 17 16 14 14 11 9 11 8 9 8 8 9 9 6 5 5 7 6 5 5 2
10 11 13 13 9 7 10 11 11 12 11 13 15 13 15 16 14 15 17 17 16 15 15 14 15 14 13 13 10 11 10 10 10 9 9 5 5 8 6 7 6 6 6
11 11 12 8 5 4 6 6 7 8 9 11 14 13 14 14 11 14 17 18 17 15 14 15 15 11 11 11 10 12 10 10 7 7 9 6 6 7 8 6 7 4 5
10 12 10 9 8 5 6 6 5 5 7 9 9 13 13 12 10 9 14 14 13 13 13 15 14 11 10 10 8 6 8 10 9 10 9 9 10 9 9 8 7 5 7
5 5 9 6 5 3 5 8 7 6 7 8 11 11 11 11 7 9 13 13 14 14 12 14 12 9 10 13 11 8 10 10 10 11 12 10 9 10 8 6 7 6 9
7 5 4 6 6 5 4 6 8 7 8 7 8 8 10 9 8 7 5 7 8 10 6 10 9 8 7 6 5 7 13 14 15 13 14 12 11 8 8 8 8 7 9
8 7 4 1 1 5 5 5 5 7 7 7 6 7 7 10 9 9 7 4 10 10 8 7 5 4 4 1 2 8 12 12 11 16 16 11 5 6 7 6 7 7 9
9 7 6 3 2 3 5 4 2 3 4 5 7 8 12 11 10 9 8 6 7 5 8 7 8 4 9 6 3 9 11 13 10 9 8 11 12 13 10 11 9 10 10
6 6 6 3 2 2 3 2 3 3 8 10 9 8 6 8 5 4 11 8 7 6 7 6 4 9 11 9 9 7 5 5 4 5 7 7 8 7 8 10 11 11 10
6 4 4 5 4 3 5 4 3 4 8 8 8 6 6 7 8 8 8 6 4 5 4 2 4 8 10 11 8 11 11 4 4 7 6 6 6 6 5 4 8 10 9
6 6 6 6 6 6 6 4 5 5 7 8 6 5 4 5 7 9 10 9 9 4 4 5 6 8 8 8 9 7 7 6 5 5 5 5 6 6 6 5 6 9 15
6 6 4 4 4 4 1 3 5 5 5 4 4 5 6 6 6 5 6 5 7 6 6 4 0 5 3 3 5 7 6 6 7 9 9 8 7 8 9 8 8 7 7
4 4 4 4 4 2 5 7 7 8 7 5 5 5 5 6 6 8 8 6 6 6 3 4 3 3 4 4 5 4 5 5 6 7 7 6 6 9 12 11 12 12 14
5 5 5 4 4 4 4 6 11 9 9 9 10 9 8 10 9 7 7 7 5 4 5 1 2 1 2 1 2 4 5 4 6 6 7 7 7 7 8 8 8 9 11
5 5 4 5 5 5 4 3 4 4 6 7 7 8 8 8 8 5 4 1 2 5 4 1 2 2 2 2 3 3 4 4 6 7 6 9 8 6 7 9 10 9 10
4 1 4 5 5 5 4 4 4 3 1 6 2 3 5 6 5 2 2 5 6 6 2 4 4 2 2 2 3 5 2 3 4 7 7 7 7 10 7 7 9 11 10
4 5 4 4 5 4 4 4 4 4 5 4 6 4 6 4 1 1 2 7 8 6 6 3 4 2 3 4 4 5 4 4 5 4 4 5 8 6 9 10 8 11 11
3 3 3 3 3 4 5 5 5 4 4 3 3 4 8 7 8 9 10 6 4 6 5 4 3 3 5 5 6 5 5 4 4 6 6 6 6 5 6 8 10 10 10
4 2 3 6 6 6 6 6 6 6 6 5 5 2 5 5 6 5 4 4 5 5 4 5 5 4 5 6 6 6 6 4 6 5 6 5 6 8 8 8 7 6 7
3 3 3 5 5 5 7 7 6 7 8 8 7 2 7 6 8 6 6 5 5 5 5 5 6 5 5 7 8 8 5 8 5 5 6 6 7 8 8 9 9 10 11
7 5 6 6 6 5 7 7 7 7 8 9 9 9 8 9 8 8 8 8 6 6 6 6 6 7 6 9 9 8 9 8 7 6 6 8 8 8 8 8 8 7 7
9 7 7 7 6 7 7 7 8 7 7 8 8 8 9 10 11 12 9 8 7 7 8 8 8 9 9 10 8 9 9 8 8 8 10 9 10 9 9 9 8 11 11
5 6 7 6 7 7 7 8 8 8 8 8 8 8 9 9 10 10 10 9 9 9 10 10 10 12 13 14 15 15 10 5 8 5 7 11 13 13 11 10 8 8 10
7 7 7 7 7 8 8 9 9 10 10 10 11 10 10 10 8 9 9 9 10 13 16 13 12 15 16 14 16 16 8 8 9 7 9 10 10 11 8 11 9 7 8
Wind_Direction
238 239 237 221 226 226 228 236 235 231 218 230 227 222 219 214 213 213 220 229 216 223 229 217 222 222 234 231 229 233 229 228 243 261 272 294 260 248 274 257 270 284 248
270 262 237 242 244 238 243 239 234 230 224 216 230 233 232 223 216 216 221 217 225 226 225 228 225 222 212 229 226 229 232 232 243 257 277 270 243 258 257 264 262 265 290
254 259 254 241 243 241 246 255 245 238 236 229 217 224 229 230 227 222 227 229 226 226 227 228 224 224 226 216 218 215 223 234 223 249 258 231 275 256 227 223 247 241 257
256 255 254 250 228 229 228 241 244 249 255 251 247 243 237 233 228 234 228 223 223 226 228 230 228 224 220 215 215 214 233 226 217 231 241 251 247 272 248 267 210 227 223
265 262 252 220 138 164 197 224 233 238 255 258 256 251 245 244 240 232 233 226 219 218 221 229 229 225 222 224 210 211 216 218 225 223 242 231 232 236 246 249 252 262 204
297 263 215 160 151 177 239 256 247 242 255 249 254 244 245 249 234 211 239 238 228 214 214 221 225 211 217 205 219 269 232 228 214 226 229 234 234 233 236 248 234 228 239
347 292 177 147 203 224 244 248 232 216 222 239 234 247 249 246 191 239 230 236 230 221 217 216 209 211 215 210 204 234 241 248 240 227 241 240 235 233 257 252 260 229 249
358 17 128 143 166 177 227 231 226 229 231 223 238 239 241 232 175 206 253 250 236 235 219 213 200 189 199 213 182 211 232 235 231 239 239 247 252 250 231 243 251 256 259
13 4 22 231 12 17 314 263 199 200 197 207 227 228 218 243 199 200 181 235 248 228 205 189 140 124 91 43 262 234 244 240 222 221 236 262 323 288 243 246 241 229 252
350 3 347 40 9 252 254 246 159 171 187 210 203 204 237 229 196 205 181 244 219 213 187 167 166 115 105 158 227 228 252 247 238 241 231 247 246 240 216 242 245 249 252
340 351 340 48 80 251 205 229 177 116 80 73 78 54 39 20 65 185 183 235 207 195 186 196 161 149 176 191 206 260 246 278 258 264 261 259 256 253 237 215 236 245 250
346 8 23 18 19 43 75 88 81 107 92 80 90 76 55 57 60 66 98 88 22 207 189 209 142 133 174 202 206 237 249 263 281 265 230 236 243 255 261 283 279 256 255
354 3 18 21 10 25 38 43 89 77 99 106 107 98 101 105 92 79 78 76 58 75 57 73 104 151 176 197 221 248 209 200 214 240 250 235 256 255 254 256 247 261 266
6 8 9 42 11 22 40 66 73 66 69 57 92 105 116 116 109 111 107 129 124 145 155 165 45 298 261 232 198 204 212 231 235 246 246 249 246 253 246 243 249 246 247
24 14 358 52 19 36 36 12 33 52 17 19 52 61 64 88 67 48 31 35 28 47 299 164 189 223 234 228 247 236 261 255 254 260 260 253 252 266 263 254 248 251 247
10 33 28 41 42 39 29 102 55 45 32 38 34 27 80 73 94 78 65 57 36 335 232 223 146 358 330 25 347 335 312 291 297 299 288 285 278 268 273 268 249 246 252
25 23 59 26 38 40 50 45 148 115 67 49 45 40 38 118 133 122 110 149 227 283 265 337 322 324 318 293 321 343 313 315 319 294 291 286 272 270 277 275 273 259 252
25 220 14 26 15 17 28 14 19 24 44 151 143 327 97 128 130 94 19 288 230 214 244 329 303 342 7 306 297 284 295 304 291 292 281 264 273 285 273 264 274 277 260
33 38 8 8 38 338 17 26 25 21 0 348 137 182 142 132 106 240 237 267 290 306 304 243 256 286 282 293 288 272 301 320 317 302 292 313 319 296 286 277 265 259 268
98 74 282 356 3 357 353 347 354 344 319 324 320 8 144 170 205 204 203 235 283 267 270 281 261 179 230 261 260 267 284 296 302 297 307 307 302 289 297 312 307 282 273
343 356 338 301 2 358 331 338 325 313 306 320 311 159 85 295 303 303 292 285 279 288 288 298 272 203 223 252 269 248 258 288 281 313 325 328 301 302 306 299 296 292 306
321 334 342 336 334 331 353 312 323 312 301 294 295 262 173 235 273 275 279 264 258 253 273 283 279 265 241 256 268 267 263 258 259 273 296 315 299 300 297 308 307 314 310
308 326 324 320 327 334 301 319 321 318 322 305 295 292 269 260 242 245 258 263 261 255 250 244 238 261 244 251 247 253 263 270 281 287 280 284 289 296 318 323 325 328 303
297 320 330 326 342 322 300 337 307 313 304 302 303 307 303 298 295 290 284 282 274 268 265 259 261 239 236 241 245 246 243 247 261 253 272 279 285 297 297 304 303 308 311
348 340 324 326 318 323 318 310 314 312 313 322 322 319 320 317 310 307 316 314 297 277 269 270 265 266 262 252 264 263 254 152 263 307 274 276 279 292 292 293 308 298 304
338 351 329 330 327 327 324 319 318 320 331 337 327 330 322 318 326 336 338 335 333 330 319 309 296 273 264 263 252 254 232 181 227 226 262 268 274 276 283 279 286 286 302